Cam: Der Himmel über Mannheim, aktuelles Bild mit Wetterinformationen (Metar)



Der Himmel über Mannheim
Die WebCam zeigt nach Norden. (Feudenheim 3km, Vogelstang 6km, Frankfurt 70km)

Letzter SYNOP von MA-Vogelstang. Zeitformat[UTC].
Beispiel: 18hr entspricht 19:00 Uhr oder bei Sommerzeit 20 Uhr


Das aktuelle Wetter in Baden Wurttemberg, Neuostheim, Germany:

Baden Wurttemberg, Neuostheim, Germany stehen keine DATEN zur Verfügung.
METAR:

Das aktuelle Wetter in Mannheim, Seckenheim, Germany

0968: Neuester Wetterbericht von 15:25 Uhr. Der Wind war ruhig. Die Temperatur war 28 °C (82 °F) bei einem Taupunkt von 20 °C (68 °F). Die gefühlte Temperatur lag bei 29 °C (85 °F). Der Luftdruck stand auf 1010 hPa (29.83 inHg). Die relative Luftfeuchtigkeit erreichte 61.9%.
METAR: 09682 181425Z 00000KT 28/20 Q1010

Mehr zum Thema Metar


Nach oben

HomeHome

Schnellzugriff auf diese Seite mit c.maw24.de oder cam.Mannheim-Wetter.Info


XHTML 1.0 Transitional